Atlantic City International Airport
KACY : now visible

Airfield :











YOU CAN JOIN US ON...

 
LOGIN :

Register | Disclaimer

   EN    FR    IT 

 









Legend :    VFR   Marginal VFR   IFR   Intensive IFR   Very Intensive IFR
Visi :
Ceiling :
>= 8 km
>= 3000ft
5 to 8 km
1000 to 3000 ft
1500m to 5 km
500 to 1000 ft
800 to 1500m
200 to 500 ft
< 800m
< 200 ft
Symbols :   Thunderstorms  Fog  Heavy snow  Heavy precipitations  Wind > 20 kt






- Airport Elevation : 75 ft
- IATA code : ACY


KACY - Atlantic City International

CURRENT METAR :
  • 042354Z AUTO 04008KT 10SM OVC065 21/17 A3008

EXPIRED METARs :
  • 042310Z 03008KT 10SM OVC070 21/17 A3008

TAF KACY
Valid from the 05 at 00:00 until the 06 at 00:00 UTC


042328Z 0500/0524 04008KT P6SM VCSH OVC050
FM050200 03008KT P6SM VCSH BKN025
TEMPO 0506/0510 BKN015
FM051700 35005KT P6SM BKN040
KZDC FIR / North America



MET'MAP, your aeronautical weather chart ! - Copyright ORBIFLY December 2007 - Disclaimer

ORBIFLY MET'MAP TEAM :

Programming & Development : Alexandra Zaïnal
Concept & original design : Baudouin d'Aumeries
Assistance for programming : Marc-Olivier Méhu
Technical & hardware support : Manuel Goepfert

Contact : metmap@orbifly.com




SOURCES & CREDITS :

   NOAA       Earth
Advisory